Header for Extended Forecast Station List Page

Search by: ID | Name | Date | Parm | Value | Avg | % Avg
Sort by: ID | Name | Date | Parm | Value | Avg | % Avg

Enter search or view all records.

Click on id for station plot
#IDNameDateParmValueAvg% Avg
0LEOI1KOOTENAI-AT LEONIA01-13-2020DISCHARGE (KAF)1534182784
1FCFM8NF FLATHEAD-NEAR COLUMBIA FALLS01-13-2020DISCHARGE (KAF)39440398
2WGCM8MF FLATHEAD-NEAR WEST GLACIER01-13-2020DISCHARGE (KAF)29537778
3CFMM8FLATHEAD-AT COLUMBIA FALLS01-13-2020DISCHARGE (KAF)1439164787
4DLGM8CLARK FORK-AT DEER LODGE01-13-2020DISCHARGE (KAF)606691
5DRMM8CLARK FORK-NR DRUMMOND01-13-2020DISCHARGE (KAF)170MM
6RCCM8ROCK CREEK-NEAR CLINTON01-13-2020DISCHARGE (KAF)667292
7BONM8BLACKFOOT-NEAR BONNER01-13-2020DISCHARGE (KAF)26026498
8ABOM8CLARK FORK-ABOVE MISSOULA01-13-2020DISCHARGE (KAF)51554495
9BITM8BITTERROOT-NEAR MISSOULA01-13-2020DISCHARGE (KAF)33537290
10BELM8CLARK FORK-BELOW MISSOULA01-13-2020DISCHARGE (KAF)85192792
11STRM8ST. REGIS-NEAR ST. REGIS01-13-2020DISCHARGE (KAF)8713166
12SRGM8CLARK FORK-AT ST REGIS01-13-2020DISCHARGE (KAF)1081131282
13PRTI1PRIEST-NEAR PRIEST RIVER01-13-2020DISCHARGE (KAF)458376122
14SPOW1SPOKANE-AT SPOKANE01-13-2020DISCHARGE (KAF)1970MM
15SATI1ST MARIES-NEAR SANTA01-13-2020DISCHARGE (KAF)10712685
16CIBW1COLUMBIA-AT INTL BOUNDARY01-13-2020DISCHARGE (KAF)16842MM
17LAUW1KETTLE-AT LAURIER01-13-2020DISCHARGE (KAF)718569126
18TONW1OKANOGAN-NEAR TONASKET01-13-2020DISCHARGE (KAF)38845685
19PATW1METHOW-NEAR PATEROS01-13-2020DISCHARGE (KAF)20322092
20ARDW1ENTIAT-NEAR ARDENVOIR01-13-2020DISCHARGE (KAF)404786
21PESW1WENATCHEE-AT PESHASTIN01-13-2020DISCHARGE (KAF)51753297
22EASW1YAKIMA-AT EASTON01-13-2020DISCHARGE (KAF)10099101
23TNAW1TEANAWAY-BELOW FORKS01-13-2020DISCHARGE (KAF)122106115
24UMTW1YAKIMA-AT UMTANUM01-13-2020DISCHARGE (KAF)476469101
25CLFW1NACHES-NEAR CLIFFDEL01-13-2020DISCHARGE (KAF)15519878
26NACW1NACHES-NEAR NACHES01-13-2020DISCHARGE (KAF)20522691
27PARW1YAKIMA-NEAR PARKER01-13-2020DISCHARGE (KAF)52061385
28KIOW1YAKIMA-AT KIONA01-13-2020DISCHARGE (KAF)74894979
29CHEI1FALL RIVER-NEAR CHESTER01-13-2020DISCHARGE (KAF)151149102
30ANTI1HENRYS FORK-AT ST. ANTHONY01-13-2020DISCHARGE (KAF)441423104
31TEAI1TETON-NEAR ST. ANTHONY01-13-2020DISCHARGE (KAF)129128101
32REXI1HENRYS FORK-AT REXBURG01-13-2020DISCHARGE (KAF)502496101
33JKSW4SNAKE-NEAR JACKSON01-13-2020DISCHARGE (KAF)28540570
34ALPW4SNAKE-NEAR ALPINE01-13-2020DISCHARGE (KAF)41553977
35HEII1SNAKE-NEAR HEISE01-13-2020DISCHARGE (KAF)80094285
36SIFI1SNAKE-AB EAGLE ROCK NR IDAHO FALLS01-13-2020DISCHARGE (KAF)1006113189
37SHYI1SNAKE-NEAR SHELLEY01-13-2020DISCHARGE (KAF)951115782
38SNAI1SNAKE-AT BLACKFOOT01-13-2020DISCHARGE (KAF)813102979
39BFTI1SNAKE-NEAR BLACKFOOT01-13-2020DISCHARGE (KAF)803107375
40PIHI1PORTNEUF-AT POCATELLO01-13-2020DISCHARGE (KAF)719376
41MILI1SNAKE-AT MILNER01-13-2020DISCHARGE (KAF)107771
42HOTI1BRUNEAU-NEAR HOT SPRINGS01-13-2020DISCHARGE (KAF)839290
43SWAI1SNAKE-BELOW SWAN FALLS01-13-2020DISCHARGE (KAF)1771274065
44HWRI1BIG LOST-AT HOWELL RANCH NEAR CHILLY01-13-2020DISCHARGE (KAF)242982
45HALI1BIG WOOD-AT HAILEY01-13-2020DISCHARGE (KAF)556881
46BIGI1BOISE-AT GLENWOOD BRIDGE01-13-2020DISCHARGE (KAF)275179154
47PARI1BOISE-NEAR PARMA01-13-2020DISCHARGE (KAF)370315118
48EMMI1PAYETTE-NEAR EMMETT01-13-2020DISCHARGE (KAF)54370677
49WSRI1WEISER-NEAR WEISER01-13-2020DISCHARGE (KAF)32233795
50WEII1SNAKE-AT WEISER01-13-2020DISCHARGE (KAF)3285478869
51WHBI1SALMON-AT WHITEBIRD01-13-2020DISCHARGE (KAF)1301177373
52TRYO3GRANDE RONDE-TROY01-13-2020DISCHARGE (KAF)76787288
53ANAW1SNAKE-NEAR ANATONE01-13-2020DISCHARGE (KAF)5936870068
54ORFI1CLEARWATER-AT OROFINO01-13-2020DISCHARGE (KAF)21112080102
55SPDI1CLEARWATER-AT SPALDING01-13-2020DISCHARGE (KAF)2782375174
56TCHW1WALLA WALLA-NEAR TOUCHET01-13-2020DISCHARGE (KAF)18722184
57GIBO3UMATILLA-NEAR GIBBON01-13-2020DISCHARGE (KAF)8878114
58PDTO3UMATILLA-AT PENDLETON01-13-2020DISCHARGE (KAF)18219295
59MYKO3MCKAY CREEK-NEAR PILOT ROCK01-13-2020DISCHARGE (KAF)364286
60UMAO3UMATILLA-NEAR UMATILLA01-13-2020DISCHARGE (KAF)14718082
61MONO3NF JOHN DAY-AT MONUMENT01-13-2020DISCHARGE (KAF)32048166
62SERO3JOHN DAY-AT SERVICE CK01-13-2020DISCHARGE (KAF)48472067
63MODO3DESCHUTES-AT MOODY NR BIGGS01-13-2020DISCHARGE (KAF)1430160789
64PITW1KLICKITAT-NEAR PITT01-13-2020DISCHARGE (KAF)36348275
65HODO3HOOD-NEAR TUCKER BRIDGE01-13-2020DISCHARGE (KAF)310292106
66UNDW1WHITE SALMON-NEAR UNDERWOOD01-13-2020DISCHARGE (KAF)30034886
67LYDM8KOOTENAI-LIBBY DAM01-13-2020INFLOW (KAF)1164126892
68HHWM8SF FLATHEAD-HUNGRY HORSE DAM01-13-2020INFLOW (KAF)57557999
69KERM8FLATHEAD-KERR DAM01-13-2020INFLOW (KAF)1698214279
70NOXM8CLARK FORK-NOXON RAPIDS DAM01-13-2020INFLOW (KAF)3206461469
71CABI1CLARK FORK-CABINET GORGE DAM01-13-2020INFLOW (KAF)3578484474
72ALFW1PEND OREILLE-ALBENI FALLS DAM01-13-2020INFLOW (KAF)4648587879
73COEI1COEUR D ALENE-COEUR D ALENE LAKE01-13-2020INFLOW (KAF)2091211199
74LLKW1SPOKANE-AT LONGLAKE01-13-2020INFLOW (KAF)2320255291
75GCDW1COLUMBIA-GRAND COULEE DAM01-13-2020INFLOW (KAF)2003919572102
76CHJW1COLUMBIA-CHIEF JOSEPH DAM01-13-2020INFLOW (KAF)224962402594
77WELW1COLUMBIA-WELLS DAM01-13-2020INFLOW (KAF)230762467294
78CHDW1CHELAN-LAKE CHELAN DAM01-13-2020INFLOW (KAF)23629979
79RRHW1COLUMBIA-ROCKY REACH DAM01-13-2020INFLOW (KAF)235152510794
80WANW1COLUMBIA-WANAPUM DAM01-13-2020INFLOW (KAF)2403723088104
81PRWW1COLUMBIA-PRIEST RAPIDS DAM01-13-2020INFLOW (KAF)2403623335103
82KEDW1YAKIMA-KEECHELUS LAKE01-13-2020INFLOW (KAF)9870141
83KADW1KACHESS-KACHESS DAM01-13-2020INFLOW (KAF)8968131
84CLUW1CLE ELUM-CLE ELUM LAKE01-13-2020INFLOW (KAF)209171122
85BUDW1BUMPING-BUMPING LAKE DAM01-13-2020INFLOW (KAF)5450109
86RILW1TIETON-RIMROCK LAKE NEAR RIMROCK01-13-2020INFLOW (KAF)769878
87IPDI1HENRYS FORK-ISLAND PARK DAM01-13-2020INFLOW (KAF)133131102
88JLKW4SNAKE-JACKSON LAKE AT DAM01-13-2020INFLOW (KAF)15817093
89PLDI1SF SNAKE-PALISADES DAM01-13-2020INFLOW (KAF)72190180
90RIDI1WILLOW CREEK-RIRIE DAM01-13-2020INFLOW (KAF)4730157
91AFRI1SNAKE-AMERICAN FALLS RESERVOIR01-13-2020INFLOW (KAF)1407179179
92MACI1BIG LOST-MACKAY RESERVOIR NEAR MACKAY01-13-2020INFLOW (KAF)3617206
93MAGI1BIG WOOD-MAGIC DAM01-13-2020INFLOW (KAF)8412468
94LWRI1LITTLE WOOD-LITTLE WOOD DAM01-13-2020INFLOW (KAF)323984
95OWYO3OWYHEE-OWYHEE DAM01-13-2020INFLOW (KAF)26331683
96ARAI1SF BOISE-ANDERSON RANCH DAM01-13-2020INFLOW (KAF)20122589
97LUCI1BOISE-LUCKY PEAK DAM01-13-2020INFLOW (KAF)588MM
98WRMO3MALHEUR-WARM SPRINGS DAM01-13-2020INFLOW (KAF)547572
99BERO3MALHEUR-AGENCY VALLEY DAM01-13-2020INFLOW (KAF)304764
100BULO3BULLY CREEK-BULLY CREEK DAM01-13-2020INFLOW (KAF)4939
101CSDI1NF PAYETTE-CASCADE DAM01-13-2020INFLOW (KAF)20721198
102DEDI1DEADWOOD-NEAR LOWMAN01-13-2020INFLOW (KAF)363990
103BRNI1SNAKE-BROWNLEE DAM01-13-2020INFLOW (KAF)3631513271
104DWRI1NF CLEARWATER-DWORSHAK DAM01-13-2020INFLOW (KAF)16261551105
105LGDW1SNAKE-LOWER GRANITE DAM01-13-2020INFLOW (KAF)87181256969
106LGSW1SNAKE-LITTLE GOOSE DAM01-13-2020INFLOW (KAF)87181260969
107LMNW1SNAKE-LOWER MONUMENTAL DAM01-13-2020INFLOW (KAF)90351289270
108IHDW1SNAKE-ICE HARBOR DAM01-13-2020INFLOW (KAF)90351273371
109MCDW1COLUMBIA-MCNARY DAM01-13-2020INFLOW (KAF)339223827889
110JDAO3COLUMBIA-JOHN DAY DAM01-13-2020INFLOW (KAF)357684054088
111TDAO3COLUMBIA-THE DALLES DAM01-13-2020INFLOW (KAF)362684321084
112BONO3COLUMBIA-BONNEVILLE DAM01-13-2020INFLOW (KAF)372244611781
113HOPI1PEND OREILLE-PEND OREILLE LAKE NR HOPE01-13-2020LAKE ELEVATION (FT)MMM
114BFEI1KOOTENAI-AT BONNERS FERRY01-13-2020STAGE (FT)MMM
115SJMI1ST JOE-AT ST MARIES01-13-2020STAGE (FT)MMM